Wetterdaten: Sonntag, 03.04.2016
Datum Zeit Auen-Temp. Temp gefhlt Luftfeuchte Luftdruck Regen Wind Richtung Richtung Sonnenschein Taupunkt Windben
03.04.2016 00:00 8,0 C 8,0 C 79 % 1013,9 hPa 0,0 mm 0,0 km/h (0 Bft) NO 45 0 min 4,6 C 0,0 km/h (0 Bft)
03.04.2016 00:05 8,0 C 7,9 C 79 % 1013,9 hPa 0,0 mm 0,0 km/h (0 Bft) O 90 0 min 4,6 C 0,0 km/h (0 Bft)
03.04.2016 00:10 8,1 C 8,1 C 78 % 1013,9 hPa 0,0 mm 0,0 km/h (0 Bft) W-NW 292 0 min 4,5 C 0,0 km/h (0 Bft)
03.04.2016 00:12 8,1 C 8,1 C 78 % 1013,9 hPa 0,0 mm 0,0 km/h (0 Bft) W-NW 292 0 min 4,5 C 0,0 km/h (0 Bft)
03.04.2016 00:14 8,0 C 7,9 C 80 % 1013,9 hPa 0,0 mm 1,2 km/h (1 Bft) SO 135 0 min 4,8 C 3,3 km/h (1 Bft)
03.04.2016 00:20 8,4 C 8,3 C 78 % 1013,9 hPa 0,0 mm 1,5 km/h (1 Bft) O-NO 67 0 min 4,8 C 0,0 km/h (0 Bft)
03.04.2016 00:25 8,4 C 8,3 C 78 % 1013,9 hPa 0,0 mm 0,3 km/h (0 Bft) N-NO 22 0 min 4,8 C 0,0 km/h (0 Bft)
03.04.2016 00:30 8,4 C 8,3 C 78 % 1013,8 hPa 0,0 mm 0,3 km/h (0 Bft) O 90 0 min 4,8 C 0,0 km/h (0 Bft)
03.04.2016 00:35 8,4 C 8,3 C 78 % 1013,8 hPa 0,0 mm 0,0 km/h (0 Bft) O-NO 67 0 min 4,8 C 0,0 km/h (0 Bft)
03.04.2016 00:40 8,5 C 9,0 C 77 % 1013,8 hPa 0,0 mm 0,0 km/h (0 Bft) O-NO 67 0 min 4,7 C 0,0 km/h (0 Bft)
03.04.2016 00:45 8,7 C 8,8 C 76 % 1013,8 hPa 0,0 mm 0,3 km/h (0 Bft) N-NW 337 0 min 4,7 C 0,0 km/h (0 Bft)
03.04.2016 00:50 8,3 C 8,6 C 76 % 1013,9 hPa 0,0 mm 0,3 km/h (0 Bft) N-NW 337 0 min 4,3 C 0,0 km/h (0 Bft)
03.04.2016 00:55 8,2 C 8,3 C 76 % 1013,9 hPa 0,0 mm 0,0 km/h (0 Bft) SO 135 0 min 4,2 C 0,0 km/h (0 Bft)
03.04.2016 01:00 8,4 C 8,3 C 76 % 1013,9 hPa 0,0 mm 0,0 km/h (0 Bft) O-SO 112 0 min 4,4 C 0,0 km/h (0 Bft)
03.04.2016 01:05 8,5 C 8,5 C 75 % 1013,9 hPa 0,0 mm 0,0 km/h (0 Bft) NO 45 0 min 4,3 C 0,0 km/h (0 Bft)
03.04.2016 01:10 8,2 C 8,4 C 75 % 1013,8 hPa 0,0 mm 0,0 km/h (0 Bft) N 360 0 min 4,0 C 0,0 km/h (0 Bft)
03.04.2016 01:15 8,0 C 8,3 C 75 % 1013,8 hPa 0,0 mm 0,0 km/h (0 Bft) N-NO 22 0 min 3,8 C 0,0 km/h (0 Bft)
03.04.2016 01:20 8,2 C 8,3 C 75 % 1013,8 hPa 0,0 mm 0,0 km/h (0 Bft) O-NO 67 0 min 4,0 C 0,0 km/h (0 Bft)
03.04.2016 01:25 8,1 C 8,4 C 75 % 1013,8 hPa 0,0 mm 0,0 km/h (0 Bft) W 270 0 min 3,9 C 0,0 km/h (0 Bft)
03.04.2016 01:30 8,1 C 8,3 C 76 % 1013,8 hPa 0,0 mm 0,6 km/h (0 Bft) W-SW 247 0 min 4,1 C 0,0 km/h (0 Bft)
03.04.2016 01:35 8,0 C 8,1 C 76 % 1013,8 hPa 0,0 mm 0,6 km/h (0 Bft) N-NW 337 0 min 4,0 C 0,0 km/h (0 Bft)
03.04.2016 01:40 8,1 C 8,1 C 76 % 1013,8 hPa 0,0 mm 0,0 km/h (0 Bft) NW 315 0 min 4,1 C 0,0 km/h (0 Bft)
03.04.2016 01:45 8,2 C 8,2 C 76 % 1013,8 hPa 0,0 mm 0,0 km/h (0 Bft) O-SO 112 0 min 4,2 C 0,0 km/h (0 Bft)
03.04.2016 01:50 8,3 C 8,3 C 76 % 1013,8 hPa 0,0 mm 0,0 km/h (0 Bft) N-NO 22 0 min 4,3 C 0,0 km/h (0 Bft)
03.04.2016 01:55 8,5 C 8,7 C 75 % 1013,8 hPa 0,0 mm 0,0 km/h (0 Bft) O 90 0 min 4,3 C 0,0 km/h (0 Bft)
03.04.2016 02:00 8,4 C 8,8 C 75 % 1013,8 hPa 0,0 mm 0,0 km/h (0 Bft) NW 315 0 min 4,2 C 0,0 km/h (0 Bft)
03.04.2016 02:05 8,6 C 8,9 C 74 % 1013,8 hPa 0,0 mm 0,0 km/h (0 Bft) O-SO 112 0 min 4,2 C 0,0 km/h (0 Bft)
03.04.2016 02:10 8,7 C 9,2 C 74 % 1013,9 hPa 0,0 mm 0,0 km/h (0 Bft) SO 135 0 min 4,3 C 0,0 km/h (0 Bft)
03.04.2016 02:15 9,5 C 9,9 C 72 % 1013,9 hPa 0,0 mm 0,3 km/h (0 Bft) O-SO 112 0 min 4,7 C 0,0 km/h (0 Bft)
03.04.2016 02:20 10,0 C 10,3 C 70 % 1013,9 hPa 0,0 mm 0,3 km/h (0 Bft) O-SO 112 0 min 4,8 C 0,0 km/h (0 Bft)
03.04.2016 02:25 10,7 C 10,7 C 68 % 1013,9 hPa 0,0 mm 0,0 km/h (0 Bft) S-SO 157 0 min 5,0 C 0,0 km/h (0 Bft)
03.04.2016 02:30 10,9 C 10,9 C 67 % 1013,8 hPa 0,0 mm 0,6 km/h (0 Bft) S-SO 157 0 min 5,0 C 5,4 km/h (1 Bft)
03.04.2016 02:35 10,9 C 11,1 C 64 % 1013,8 hPa 0,0 mm 1,5 km/h (1 Bft) S 180 0 min 4,4 C 21,2 km/h (4 Bft)
03.04.2016 02:40 11,4 C 11,5 C 61 % 1013,8 hPa 0,0 mm 8,0 km/h (2 Bft) S 180 0 min 4,2 C 15,8 km/h (3 Bft)
03.04.2016 02:45 11,5 C 11,6 C 59 % 1013,8 hPa 0,0 mm 9,5 km/h (2 Bft) S 180 0 min 3,8 C 23,5 km/h (4 Bft)
03.04.2016 02:50 11,1 C 11,7 C 59 % 1013,6 hPa 0,0 mm 3,9 km/h (1 Bft) O-SO 112 0 min 3,4 C 0,0 km/h (0 Bft)
03.04.2016 02:55 11,8 C 11,8 C 58 % 1013,6 hPa 0,0 mm 5,4 km/h (1 Bft) SW 225 0 min 3,8 C 26,5 km/h (4 Bft)
03.04.2016 03:00 11,3 C 11,8 C 58 % 1013,6 hPa 0,0 mm 6,6 km/h (2 Bft) S 180 0 min 3,3 C 0,0 km/h (0 Bft)
03.04.2016 03:05 11,2 C 11,6 C 58 % 1013,6 hPa 0,0 mm 5,4 km/h (1 Bft) SO 135 0 min 3,2 C 3,6 km/h (1 Bft)
03.04.2016 03:10 11,1 C 11,5 C 58 % 1013,5 hPa 0,0 mm 2,7 km/h (1 Bft) S-SO 157 0 min 3,2 C 3,6 km/h (1 Bft)
03.04.2016 03:13 11,1 C 11,3 C 58 % 1013,5 hPa 0,0 mm 1,5 km/h (1 Bft) N-NO 22 0 min 3,2 C 0,0 km/h (0 Bft)
03.04.2016 03:15 11,1 C 11,3 C 58 % 1013,5 hPa 0,0 mm 1,5 km/h (1 Bft) N-NO 22 0 min 3,2 C 0,0 km/h (0 Bft)
03.04.2016 03:20 10,6 C 11,1 C 59 % 1013,5 hPa 0,0 mm 0,9 km/h (0 Bft) S 180 0 min 2,9 C 0,0 km/h (0 Bft)
03.04.2016 03:25 11,0 C 11,1 C 58 % 1013,5 hPa 0,0 mm 0,0 km/h (0 Bft) NO 45 0 min 3,1 C 0,0 km/h (0 Bft)
03.04.2016 03:30 10,9 C 11,0 C 58 % 1013,4 hPa 0,0 mm 0,0 km/h (0 Bft) N-NO 22 0 min 3,0 C 0,0 km/h (0 Bft)
03.04.2016 03:35 11,3 C 11,2 C 58 % 1013,4 hPa 0,0 mm 0,0 km/h (0 Bft) SW 225 0 min 3,3 C 0,0 km/h (0 Bft)
03.04.2016 03:40 11,4 C 11,4 C 58 % 1013,4 hPa 0,0 mm 0,0 km/h (0 Bft) S-SO 157 0 min 3,4 C 0,0 km/h (0 Bft)
03.04.2016 03:45 11,3 C 11,4 C 58 % 1013,4 hPa 0,0 mm 0,0 km/h (0 Bft) N-NO 22 0 min 3,3 C 0,0 km/h (0 Bft)
03.04.2016 03:50 11,2 C 11,4 C 58 % 1013,3 hPa 0,0 mm 0,0 km/h (0 Bft) S 180 0 min 3,2 C 0,0 km/h (0 Bft)
03.04.2016 03:55 11,1 C 11,4 C 58 % 1013,3 hPa 0,0 mm 0,0 km/h (0 Bft) NW 315 0 min 3,2 C 0,0 km/h (0 Bft)
03.04.2016 04:00 11,3 C 11,4 C 57 % 1013,3 hPa 0,0 mm 0,0 km/h (0 Bft) O-SO 112 0 min 3,1 C 0,0 km/h (0 Bft)
03.04.2016 04:05 11,7 C 11,7 C 57 % 1013,3 hPa 0,0 mm 0,0 km/h (0 Bft) S 180 0 min 3,5 C 0,0 km/h (0 Bft)
03.04.2016 04:10 12,2 C 12,0 C 55 % 1013,1 hPa 0,0 mm 1,8 km/h (1 Bft) S 180 0 min 3,4 C 14,0 km/h (3 Bft)
03.04.2016 04:15 12,1 C 12,2 C 54 % 1013,1 hPa 0,0 mm 3,9 km/h (1 Bft) O-SO 112 0 min 3,1 C 0,0 km/h (0 Bft)
03.04.2016 04:20 12,0 C 12,0 C 55 % 1013,1 hPa 0,0 mm 2,7 km/h (1 Bft) O-SO 112 0 min 3,2 C 0,0 km/h (0 Bft)
03.04.2016 04:25 11,9 C 11,9 C 55 % 1013,1 hPa 0,0 mm 0,6 km/h (0 Bft) O 90 0 min 3,2 C 0,0 km/h (0 Bft)
03.04.2016 04:30 12,1 C 12,1 C 54 % 1013,1 hPa 0,0 mm 0,6 km/h (0 Bft) O-SO 112 0 min 3,1 C 0,0 km/h (0 Bft)
03.04.2016 04:35 11,7 C 11,9 C 54 % 1013,1 hPa 0,0 mm 0,0 km/h (0 Bft) O-NO 67 0 min 2,7 C 0,0 km/h (0 Bft)
03.04.2016 04:40 12,0 C 12,0 C 54 % 1013,1 hPa 0,0 mm 0,0 km/h (0 Bft) S-SO 157 0 min 3,0 C 0,0 km/h (0 Bft)
03.04.2016 04:45 11,7 C 11,9 C 54 % 1013,1 hPa 0,0 mm 0,0 km/h (0 Bft) O-NO 67 0 min 2,7 C 0,0 km/h (0 Bft)
03.04.2016 04:50 11,9 C 11,9 C 54 % 1013,2 hPa 0,0 mm 0,0 km/h (0 Bft) O-NO 67 0 min 2,9 C 0,0 km/h (0 Bft)
03.04.2016 04:55 11,8 C 11,9 C 54 % 1013,2 hPa 0,0 mm 0,3 km/h (0 Bft) S-SO 157 0 min 2,8 C 5,1 km/h (1 Bft)
03.04.2016 05:00 11,9 C 12,0 C 54 % 1013,2 hPa 0,0 mm 0,6 km/h (0 Bft) SO 135 0 min 2,9 C 0,0 km/h (0 Bft)
03.04.2016 05:05 12,0 C 12,1 C 54 % 1013,2 hPa 0,0 mm 0,6 km/h (0 Bft) O-NO 67 0 min 3,0 C 0,0 km/h (0 Bft)
03.04.2016 05:10 12,0 C 12,1 C 54 % 1013,4 hPa 0,0 mm 0,0 km/h (0 Bft) O-NO 67 0 min 3,0 C 0,0 km/h (0 Bft)
03.04.2016 05:15 11,7 C 12,2 C 54 % 1013,4 hPa 0,0 mm 0,0 km/h (0 Bft) O-SO 112 0 min 2,7 C 0,0 km/h (0 Bft)
03.04.2016 05:20 11,9 C 12,3 C 53 % 1013,4 hPa 0,0 mm 0,0 km/h (0 Bft) O 90 0 min 2,6 C 0,0 km/h (0 Bft)
03.04.2016 05:25 11,9 C 12,4 C 53 % 1013,4 hPa 0,0 mm 0,0 km/h (0 Bft) O-SO 112 0 min 2,6 C 0,0 km/h (0 Bft)
03.04.2016 05:30 12,0 C 12,4 C 53 % 1013,4 hPa 0,0 mm 0,0 km/h (0 Bft) O 90 0 min 2,7 C 0,0 km/h (0 Bft)
03.04.2016 05:35 11,6 C 12,3 C 53 % 1013,4 hPa 0,0 mm 0,0 km/h (0 Bft) SO 135 0 min 2,4 C 0,0 km/h (0 Bft)
03.04.2016 05:40 11,9 C 12,2 C 53 % 1013,4 hPa 0,0 mm 0,0 km/h (0 Bft) NO 45 0 min 2,6 C 0,0 km/h (0 Bft)
03.04.2016 05:45 11,4 C 12,1 C 53 % 1013,4 hPa 0,0 mm 0,0 km/h (0 Bft) NW 315 0 min 2,2 C 0,0 km/h (0 Bft)
03.04.2016 05:50 11,2 C 11,9 C 53 % 1013,3 hPa 0,0 mm 0,0 km/h (0 Bft) NW 315 0 min 2,0 C 0,0 km/h (0 Bft)
03.04.2016 05:55 11,2 C 11,6 C 53 % 1013,3 hPa 0,0 mm 0,0 km/h (0 Bft) O-SO 112 0 min 2,0 C 0,0 km/h (0 Bft)
03.04.2016 06:00 11,3 C 11,6 C 53 % 1013,3 hPa 0,0 mm 0,0 km/h (0 Bft) NW 315 0 min 2,1 C 0,0 km/h (0 Bft)
03.04.2016 06:05 11,6 C 11,6 C 52 % 1013,3 hPa 0,0 mm 0,0 km/h (0 Bft) SW 225 0 min 2,1 C 0,0 km/h (0 Bft)
03.04.2016 06:10 11,6 C 11,6 C 52 % 1013,4 hPa 0,0 mm 0,0 km/h (0 Bft) O-NO 67 0 min 2,1 C 0,0 km/h (0 Bft)
03.04.2016 06:13 10,8 C 11,4 C 52 % 1013,4 hPa 0,0 mm 0,0 km/h (0 Bft) O-NO 67 0 min 1,3 C 0,0 km/h (0 Bft)
03.04.2016 06:14 10,8 C 11,4 C 52 % 1013,4 hPa 0,0 mm 0,0 km/h (0 Bft) O-NO 67 0 min 1,3 C 0,0 km/h (0 Bft)
03.04.2016 06:15 10,8 C 11,4 C 52 % 1013,4 hPa 0,0 mm 0,0 km/h (0 Bft) O-NO 67 0 min 1,3 C 0,0 km/h (0 Bft)
03.04.2016 06:20 11,5 C 11,4 C 52 % 1013,4 hPa 0,0 mm 0,0 km/h (0 Bft) O-SO 112 0 min 2,0 C 0,0 km/h (0 Bft)
03.04.2016 06:25 10,9 C 11,2 C 52 % 1013,4 hPa 0,0 mm 0,0 km/h (0 Bft) O-NO 67 0 min 1,4 C 0,0 km/h (0 Bft)
03.04.2016 06:30 10,6 C 11,0 C 52 % 1013,4 hPa 0,0 mm 0,0 km/h (0 Bft) O-NO 67 0 min 1,2 C 0,0 km/h (0 Bft)
03.04.2016 06:35 10,3 C 10,8 C 52 % 1013,4 hPa 0,0 mm 0,0 km/h (0 Bft) O-SO 112 0 min 0,9 C 0,0 km/h (0 Bft)
03.04.2016 06:40 10,0 C 10,5 C 52 % 1013,4 hPa 0,0 mm 0,0 km/h (0 Bft) O-NO 67 0 min 0,6 C 0,0 km/h (0 Bft)
03.04.2016 06:45 10,5 C 10,5 C 52 % 1013,4 hPa 0,0 mm 0,0 km/h (0 Bft) O-NO 67 0 min 1,1 C 0,0 km/h (0 Bft)
03.04.2016 06:50 10,3 C 10,4 C 52 % 1013,4 hPa 0,0 mm 0,0 km/h (0 Bft) O-NO 67 0 min 0,9 C 0,0 km/h (0 Bft)
03.04.2016 06:55 10,5 C 10,4 C 52 % 1013,4 hPa 0,0 mm 0,0 km/h (0 Bft) SO 135 0 min 1,1 C 0,0 km/h (0 Bft)
03.04.2016 07:00 10,6 C 10,5 C 52 % 1013,4 hPa 0,0 mm 0,0 km/h (0 Bft) N-NO 22 0 min 1,2 C 0,0 km/h (0 Bft)
03.04.2016 07:05 10,4 C 10,5 C 52 % 1013,4 hPa 0,0 mm 0,0 km/h (0 Bft) N-NO 22 0 min 1,0 C 0,0 km/h (0 Bft)
03.04.2016 07:10 10,3 C 10,6 C 52 % 1013,4 hPa 0,0 mm 0,0 km/h (0 Bft) O-SO 112 0 min 0,9 C 0,0 km/h (0 Bft)
03.04.2016 07:15 10,8 C 10,9 C 52 % 1013,4 hPa 0,0 mm 0,0 km/h (0 Bft) NW 315 0 min 1,3 C 0,0 km/h (0 Bft)
03.04.2016 07:20 10,9 C 11,0 C 52 % 1013,4 hPa 0,0 mm 0,0 km/h (0 Bft) SO 135 0 min 1,4 C 0,0 km/h (0 Bft)
03.04.2016 07:25 10,8 C 11,2 C 52 % 1013,4 hPa 0,0 mm 0,0 km/h (0 Bft) O-SO 112 0 min 1,3 C 0,0 km/h (0 Bft)
03.04.2016 07:30 11,0 C 11,3 C 52 % 1013,4 hPa 0,0 mm 0,0 km/h (0 Bft) O-SO 112 0 min 1,5 C 0,0 km/h (0 Bft)
03.04.2016 07:35 11,1 C 11,5 C 52 % 1013,4 hPa 0,0 mm 0,0 km/h (0 Bft) O 90 0 min 1,6 C 0,0 km/h (0 Bft)
03.04.2016 07:40 10,9 C 11,7 C 52 % 1013,4 hPa 0,0 mm 0,0 km/h (0 Bft) NO 45 0 min 1,4 C 0,0 km/h (0 Bft)
03.04.2016 07:45 11,3 C 11,8 C 52 % 1013,4 hPa 0,0 mm 0,0 km/h (0 Bft) O-NO 67 0 min 1,8 C 0,0 km/h (0 Bft)
03.04.2016 07:50 11,3 C 11,9 C 52 % 1013,4 hPa 0,0 mm 0,0 km/h (0 Bft) N-NO 22 0 min 1,8 C 0,0 km/h (0 Bft)
03.04.2016 07:55 11,8 C 12,0 C 52 % 1013,4 hPa 0,0 mm 0,0 km/h (0 Bft) O-NO 67 0 min 2,3 C 0,0 km/h (0 Bft)
03.04.2016 08:00 11,6 C 12,3 C 52 % 1013,4 hPa 0,0 mm 0,0 km/h (0 Bft) SO 135 0 min 2,1 C 0,0 km/h (0 Bft)
03.04.2016 08:05 11,6 C 12,5 C 52 % 1013,4 hPa 0,0 mm 0,0 km/h (0 Bft) N-NW 337 0 min 2,1 C 0,0 km/h (0 Bft)
03.04.2016 08:10 11,9 C 12,7 C 52 % 1013,5 hPa 0,0 mm 0,3 km/h (0 Bft) N-NW 337 0 min 2,4 C 3,9 km/h (1 Bft)
03.04.2016 08:15 12,4 C 13,2 C 52 % 1013,5 hPa 0,0 mm 0,3 km/h (0 Bft) N-NW 337 0 min 2,8 C 0,0 km/h (0 Bft)
03.04.2016 08:20 12,6 C 13,6 C 52 % 1013,5 hPa 0,0 mm 0,3 km/h (0 Bft) N-NW 337 0 min 3,0 C 0,0 km/h (0 Bft)
03.04.2016 08:25 13,2 C 14,4 C 50 % 1013,5 hPa 0,0 mm 0,0 km/h (0 Bft) O-NO 67 0 min 3,0 C 0,0 km/h (0 Bft)
03.04.2016 08:30 13,5 C 15,5 C 51 % 1013,6 hPa 0,0 mm 0,0 km/h (0 Bft) O-NO 67 0 min 3,6 C 0,0 km/h (0 Bft)
03.04.2016 08:35 14,1 C 16,4 C 51 % 1013,6 hPa 0,0 mm 0,0 km/h (0 Bft) NO 45 0 min 4,1 C 0,0 km/h (0 Bft)
03.04.2016 08:40 14,4 C 16,9 C 51 % 1013,6 hPa 0,0 mm 0,0 km/h (0 Bft) S-SO 157 5 min 4,4 C 0,0 km/h (0 Bft)
03.04.2016 08:45 15,0 C 18,3 C 51 % 1013,6 hPa 0,0 mm 0,0 km/h (0 Bft) SO 135 5 min 4,9 C 0,0 km/h (0 Bft)
03.04.2016 08:50 15,4 C 19,1 C 49 % 1013,8 hPa 0,0 mm 0,0 km/h (0 Bft) O 90 5 min 4,7 C 0,0 km/h (0 Bft)
03.04.2016 08:55 16,3 C 20,9 C 47 % 1013,8 hPa 0,0 mm 0,0 km/h (0 Bft) O-SO 112 5 min 5,0 C 0,0 km/h (0 Bft)
03.04.2016 09:00 17,0 C 21,7 C 46 % 1013,8 hPa 0,0 mm 0,0 km/h (0 Bft) O 90 5 min 5,3 C 0,0 km/h (0 Bft)
03.04.2016 09:05 17,2 C 21,8 C 45 % 1013,8 hPa 0,0 mm 0,9 km/h (0 Bft) O-NO 67 5 min 5,2 C 0,0 km/h (0 Bft)
03.04.2016 09:10 17,5 C 22,0 C 45 % 1013,9 hPa 0,0 mm 0,9 km/h (0 Bft) O-SO 112 5 min 5,4 C 0,0 km/h (0 Bft)
03.04.2016 09:13 18,4 C 23,4 C 45 % 1013,9 hPa 0,0 mm 0,3 km/h (0 Bft) NW 315 3 min 6,3 C 0,0 km/h (0 Bft)
03.04.2016 09:15 18,4 C 23,4 C 45 % 1013,9 hPa 0,0 mm 0,3 km/h (0 Bft) NW 315 2 min 6,3 C 0,0 km/h (0 Bft)
03.04.2016 09:20 18,7 C 23,7 C 43 % 1013,9 hPa 0,0 mm 0,3 km/h (0 Bft) SO 135 5 min 5,9 C 0,0 km/h (0 Bft)
03.04.2016 09:25 18,9 C 23,8 C 44 % 1013,9 hPa 0,0 mm 0,3 km/h (0 Bft) O-SO 112 5 min 6,4 C 0,0 km/h (0 Bft)
03.04.2016 09:30 18,9 C 23,6 C 43 % 1014,2 hPa 0,0 mm 0,3 km/h (0 Bft) O-NO 67 5 min 6,0 C 0,0 km/h (0 Bft)
03.04.2016 09:35 18,9 C 23,0 C 41 % 1014,2 hPa 0,0 mm 2,4 km/h (1 Bft) SW 225 5 min 5,4 C 7,2 km/h (2 Bft)
03.04.2016 09:40 18,8 C 22,6 C 40 % 1014,2 hPa 0,0 mm 3,9 km/h (1 Bft) SW 225 5 min 4,9 C 3,0 km/h (1 Bft)
03.04.2016 09:45 18,9 C 22,5 C 42 % 1014,2 hPa 0,0 mm 3,0 km/h (1 Bft) O-NO 67 5 min 5,7 C 0,0 km/h (0 Bft)
03.04.2016 09:50 19,0 C 22,6 C 42 % 1014,2 hPa 0,0 mm 0,6 km/h (0 Bft) O-SO 112 5 min 5,8 C 0,0 km/h (0 Bft)
03.04.2016 09:55 18,9 C 22,6 C 42 % 1014,2 hPa 0,0 mm 0,3 km/h (0 Bft) N-NO 22 5 min 5,7 C 3,6 km/h (1 Bft)
03.04.2016 10:00 19,0 C 22,3 C 42 % 1014,2 hPa 0,0 mm 0,3 km/h (0 Bft) N 360 5 min 5,8 C 0,0 km/h (0 Bft)
03.04.2016 10:05 19,2 C 22,2 C 41 % 1014,2 hPa 0,0 mm 0,3 km/h (0 Bft) W-SW 247 5 min 5,6 C 0,0 km/h (0 Bft)
03.04.2016 10:10 19,1 C 22,0 C 39 % 1014,3 hPa 0,0 mm 0,9 km/h (0 Bft) S-SW 202 5 min 4,8 C 3,3 km/h (1 Bft)
03.04.2016 10:15 18,9 C 21,6 C 41 % 1014,3 hPa 0,0 mm 0,9 km/h (0 Bft) S-SO 157 5 min 5,4 C 0,0 km/h (0 Bft)
03.04.2016 10:20 18,8 C 21,2 C 41 % 1014,3 hPa 0,0 mm 0,6 km/h (0 Bft) NO 45 5 min 5,3 C 0,0 km/h (0 Bft)
03.04.2016 10:25 18,4 C 20,7 C 42 % 1014,3 hPa 0,0 mm 0,6 km/h (0 Bft) W-NW 292 5 min 5,3 C 0,0 km/h (0 Bft)
03.04.2016 10:30 18,2 C 20,5 C 41 % 1014,2 hPa 0,0 mm 0,3 km/h (0 Bft) O-NO 67 5 min 4,7 C 0,0 km/h (0 Bft)
03.04.2016 10:35 18,1 C 20,2 C 42 % 1014,2 hPa 0,0 mm 0,0 km/h (0 Bft) O-SO 112 0 min 5,0 C 0,0 km/h (0 Bft)
03.04.2016 10:40 18,2 C 20,2 C 41 % 1014,2 hPa 0,0 mm 0,0 km/h (0 Bft) N 360 0 min 4,7 C 0,0 km/h (0 Bft)
03.04.2016 10:45 18,4 C 20,4 C 42 % 1014,2 hPa 0,0 mm 0,0 km/h (0 Bft) NO 45 0 min 5,3 C 0,0 km/h (0 Bft)
03.04.2016 10:50 18,4 C 20,5 C 42 % 1014,2 hPa 0,0 mm 0,0 km/h (0 Bft) NO 45 0 min 5,3 C 0,0 km/h (0 Bft)
03.04.2016 10:55 18,6 C 20,9 C 41 % 1014,2 hPa 0,0 mm 0,3 km/h (0 Bft) S-SW 202 0 min 5,1 C 0,0 km/h (0 Bft)
03.04.2016 11:00 18,9 C 21,2 C 40 % 1014,2 hPa 0,0 mm 0,3 km/h (0 Bft) W-NW 292 0 min 5,0 C 0,0 km/h (0 Bft)
03.04.2016 11:05 19,1 C 21,4 C 41 % 1014,2 hPa 0,0 mm 0,3 km/h (0 Bft) NO 45 0 min 5,5 C 0,0 km/h (0 Bft)
03.04.2016 11:10 19,2 C 21,6 C 41 % 1013,9 hPa 0,0 mm 0,3 km/h (0 Bft) N 360 0 min 5,6 C 0,0 km/h (0 Bft)
03.04.2016 11:15 19,2 C 21,8 C 40 % 1013,9 hPa 0,0 mm 0,0 km/h (0 Bft) N-NO 22 5 min 5,3 C 0,0 km/h (0 Bft)
03.04.2016 11:20 19,2 C 21,9 C 41 % 1013,9 hPa 0,0 mm 0,0 km/h (0 Bft) NW 315 5 min 5,6 C 0,0 km/h (0 Bft)
03.04.2016 11:25 19,3 C 22,0 C 40 % 1013,9 hPa 0,0 mm 0,6 km/h (0 Bft) O-SO 112 5 min 5,4 C 0,0 km/h (0 Bft)
03.04.2016 11:30 19,4 C 22,2 C 40 % 1014,0 hPa 0,0 mm 0,6 km/h (0 Bft) N-NO 22 5 min 5,5 C 0,0 km/h (0 Bft)
03.04.2016 11:35 19,5 C 22,3 C 40 % 1014,0 hPa 0,0 mm 0,0 km/h (0 Bft) W-NW 292 5 min 5,5 C 0,0 km/h (0 Bft)
03.04.2016 11:40 19,5 C 22,3 C 40 % 1014,0 hPa 0,0 mm 0,0 km/h (0 Bft) S-SO 157 5 min 5,5 C 3,6 km/h (1 Bft)
03.04.2016 11:45 19,4 C 22,2 C 40 % 1014,0 hPa 0,0 mm 0,3 km/h (0 Bft) O-NO 67 5 min 5,5 C 0,0 km/h (0 Bft)
03.04.2016 11:50 19,3 C 22,1 C 38 % 1013,9 hPa 0,0 mm 0,9 km/h (0 Bft) NO 45 5 min 4,6 C 0,0 km/h (0 Bft)
03.04.2016 11:55 19,2 C 21,9 C 39 % 1013,9 hPa 0,0 mm 0,9 km/h (0 Bft) N-NW 337 5 min 4,9 C 0,0 km/h (0 Bft)
03.04.2016 12:00 19,1 C 21,8 C 38 % 1013,9 hPa 0,0 mm 0,9 km/h (0 Bft) SO 135 5 min 4,4 C 0,0 km/h (0 Bft)
03.04.2016 12:05 19,1 C 21,7 C 37 % 1013,9 hPa 0,0 mm 2,4 km/h (1 Bft) O-NO 67 5 min 4,1 C 8,0 km/h (2 Bft)
03.04.2016 12:10 19,1 C 21,6 C 37 % 1013,8 hPa 0,0 mm 2,4 km/h (1 Bft) O-NO 67 5 min 4,1 C 0,0 km/h (0 Bft)
03.04.2016 12:13 19,3 C 21,7 C 38 % 1013,8 hPa 0,0 mm 2,1 km/h (1 Bft) O-NO 67 0 min 4,6 C 0,0 km/h (0 Bft)
03.04.2016 12:16 19,3 C 21,7 C 38 % 1013,8 hPa 0,0 mm 2,1 km/h (1 Bft) O-NO 67 0 min 4,6 C 0,0 km/h (0 Bft)
03.04.2016 12:20 19,4 C 21,9 C 38 % 1013,8 hPa 0,0 mm 0,6 km/h (0 Bft) O-NO 67 0 min 4,7 C 0,0 km/h (0 Bft)
03.04.2016 12:25 19,5 C 22,3 C 38 % 1013,8 hPa 0,0 mm 0,6 km/h (0 Bft) O-NO 67 5 min 4,8 C 0,0 km/h (0 Bft)
03.04.2016 12:30 19,5 C 22,3 C 38 % 1013,8 hPa 0,0 mm 1,2 km/h (1 Bft) O-NO 67 5 min 4,8 C 0,0 km/h (0 Bft)
03.04.2016 12:35 19,7 C 22,5 C 37 % 1013,8 hPa 0,0 mm 1,2 km/h (1 Bft) N-NO 22 5 min 4,6 C 5,7 km/h (1 Bft)
03.04.2016 12:40 19,7 C 22,6 C 36 % 1013,8 hPa 0,0 mm 1,5 km/h (1 Bft) NO 45 5 min 4,2 C 3,9 km/h (1 Bft)
03.04.2016 12:45 19,9 C 22,7 C 35 % 1013,8 hPa 0,0 mm 3,3 km/h (1 Bft) S 180 5 min 4,0 C 4,8 km/h (1 Bft)
03.04.2016 12:50 20,0 C 23,0 C 35 % 1013,7 hPa 0,0 mm 2,4 km/h (1 Bft) O-NO 67 0 min 4,1 C 0,0 km/h (0 Bft)
03.04.2016 12:55 20,1 C 23,2 C 34 % 1013,7 hPa 0,0 mm 3,9 km/h (1 Bft) N-NO 22 0 min 3,7 C 7,2 km/h (2 Bft)
03.04.2016 13:00 20,3 C 23,6 C 34 % 1013,7 hPa 0,0 mm 3,9 km/h (1 Bft) N-NW 337 5 min 3,9 C 4,2 km/h (1 Bft)
03.04.2016 13:05 20,4 C 23,6 C 34 % 1013,7 hPa 0,0 mm 3,6 km/h (1 Bft) N-NW 337 5 min 4,0 C 8,9 km/h (2 Bft)
03.04.2016 13:10 20,4 C 23,5 C 33 % 1013,5 hPa 0,0 mm 3,6 km/h (1 Bft) NO 45 5 min 3,6 C 8,9 km/h (2 Bft)
03.04.2016 13:15 20,4 C 23,1 C 32 % 1013,5 hPa 0,0 mm 6,6 km/h (2 Bft) N-NO 22 0 min 3,2 C 8,3 km/h (2 Bft)
03.04.2016 13:20 20,4 C 22,9 C 32 % 1013,5 hPa 0,0 mm 8,9 km/h (2 Bft) N-NO 22 0 min 3,2 C 11,9 km/h (2 Bft)
03.04.2016 13:25 20,6 C 23,0 C 32 % 1013,5 hPa 0,0 mm 8,9 km/h (2 Bft) NO 45 0 min 3,3 C 12,2 km/h (2 Bft)
03.04.2016 13:30 20,7 C 23,2 C 31 % 1013,3 hPa 0,0 mm 6,6 km/h (2 Bft) O 90 0 min 3,0 C 0,0 km/h (0 Bft)
03.04.2016 13:35 21,1 C 24,0 C 31 % 1013,3 hPa 0,0 mm 4,2 km/h (1 Bft) NO 45 0 min 3,3 C 10,1 km/h (2 Bft)
03.04.2016 13:40 21,4 C 24,5 C 31 % 1013,3 hPa 0,0 mm 3,9 km/h (1 Bft) NO 45 0 min 3,6 C 6,0 km/h (2 Bft)
03.04.2016 13:45 21,6 C 25,4 C 30 % 1013,3 hPa 0,0 mm 8,6 km/h (2 Bft) O-SO 112 5 min 3,3 C 3,6 km/h (1 Bft)
03.04.2016 13:50 22,0 C 26,2 C 29 % 1013,5 hPa 0,0 mm 9,8 km/h (2 Bft) O-NO 67 5 min 3,1 C 17,9 km/h (3 Bft)
03.04.2016 13:55 21,4 C 25,1 C 29 % 1013,5 hPa 0,0 mm 9,5 km/h (2 Bft) NO 45 5 min 2,6 C 5,7 km/h (1 Bft)
03.04.2016 14:00 21,2 C 24,9 C 29 % 1013,5 hPa 0,0 mm 9,8 km/h (2 Bft) O-NO 67 5 min 2,5 C 13,4 km/h (3 Bft)
03.04.2016 14:05 20,6 C 23,0 C 31 % 1013,5 hPa 0,0 mm 9,5 km/h (2 Bft) O 90 5 min 2,9 C 9,2 km/h (2 Bft)
03.04.2016 14:10 20,3 C 22,4 C 32 % 1013,4 hPa 0,0 mm 8,6 km/h (2 Bft) W 270 0 min 3,1 C 5,4 km/h (1 Bft)
03.04.2016 14:15 20,9 C 23,5 C 33 % 1013,4 hPa 0,0 mm 3,9 km/h (1 Bft) O-NO 67 0 min 4,0 C 4,5 km/h (1 Bft)
03.04.2016 14:20 21,2 C 24,3 C 32 % 1013,4 hPa 0,0 mm 5,4 km/h (1 Bft) O-NO 67 0 min 3,8 C 14,3 km/h (3 Bft)
03.04.2016 14:25 21,4 C 25,2 C 31 % 1013,4 hPa 0,0 mm 10,4 km/h (2 Bft) NO 45 0 min 3,6 C 13,7 km/h (3 Bft)
03.04.2016 14:30 21,6 C 25,6 C 31 % 1013,1 hPa 0,0 mm 13,1 km/h (3 Bft) N-NO 22 0 min 3,7 C 10,1 km/h (2 Bft)
03.04.2016 14:35 22,4 C 26,6 C 31 % 1013,1 hPa 0,0 mm 9,5 km/h (2 Bft) O-NO 67 5 min 4,4 C 7,5 km/h (2 Bft)
03.04.2016 14:40 22,2 C 26,0 C 29 % 1013,1 hPa 0,0 mm 7,7 km/h (2 Bft) NO 45 5 min 3,3 C 22,4 km/h (4 Bft)
03.04.2016 14:45 21,8 C 24,9 C 29 % 1013,1 hPa 0,0 mm 9,5 km/h (2 Bft) S-SO 157 5 min 3,0 C 28,6 km/h (4 Bft)
03.04.2016 14:50 21,9 C 24,7 C 29 % 1012,8 hPa 0,0 mm 9,5 km/h (2 Bft) O 90 0 min 3,1 C 11,9 km/h (2 Bft)
03.04.2016 14:55 22,0 C 25,3 C 29 % 1012,8 hPa 0,0 mm 9,5 km/h (2 Bft) O-NO 67 0 min 3,1 C 15,8 km/h (3 Bft)
03.04.2016 15:00 21,9 C 25,5 C 30 % 1012,8 hPa 0,0 mm 11,6 km/h (2 Bft) O-NO 67 0 min 3,5 C 14,3 km/h (3 Bft)
03.04.2016 15:05 22,5 C 26,0 C 31 % 1012,8 hPa 0,0 mm 11,0 km/h (2 Bft) N-NW 337 0 min 4,5 C 9,2 km/h (2 Bft)
03.04.2016 15:10 23,1 C 26,9 C 30 % 1012,6 hPa 0,0 mm 8,0 km/h (2 Bft) NW 315 0 min 4,6 C 3,9 km/h (1 Bft)
03.04.2016 15:15 23,3 C 27,7 C 28 % 1012,6 hPa 0,0 mm 5,1 km/h (1 Bft) N-NW 337 5 min 3,8 C 12,5 km/h (3 Bft)
03.04.2016 15:17 23,3 C 27,7 C 28 % 1012,6 hPa 0,0 mm 5,1 km/h (1 Bft) N-NW 337 2 min 3,8 C 12,5 km/h (3 Bft)
03.04.2016 15:20 23,3 C 27,7 C 28 % 1012,6 hPa 0,0 mm 8,0 km/h (2 Bft) W 270 3 min 3,8 C 10,4 km/h (2 Bft)
03.04.2016 15:25 23,3 C 27,4 C 25 % 1012,6 hPa 0,0 mm 10,4 km/h (2 Bft) O-NO 67 5 min 2,2 C 11,9 km/h (2 Bft)
03.04.2016 15:30 23,1 C 27,0 C 28 % 1012,4 hPa 0,0 mm 8,6 km/h (2 Bft) N-NO 22 5 min 3,6 C 11,3 km/h (2 Bft)
03.04.2016 15:35 23,1 C 26,8 C 26 % 1012,4 hPa 0,0 mm 7,5 km/h (2 Bft) O-NO 67 5 min 2,5 C 15,5 km/h (3 Bft)
03.04.2016 15:40 22,9 C 26,3 C 26 % 1012,4 hPa 0,0 mm 9,8 km/h (2 Bft) S-SO 157 5 min 2,4 C 6,0 km/h (2 Bft)
03.04.2016 15:45 23,0 C 26,0 C 26 % 1012,4 hPa 0,0 mm 11,0 km/h (2 Bft) O-NO 67 5 min 2,5 C 22,9 km/h (4 Bft)
03.04.2016 15:50 22,9 C 25,8 C 28 % 1011,8 hPa 0,0 mm 10,1 km/h (2 Bft) O-NO 67 0 min 3,4 C 16,7 km/h (3 Bft)
03.04.2016 15:55 23,2 C 26,5 C 28 % 1011,8 hPa 0,0 mm 6,9 km/h (2 Bft) N-NO 22 5 min 3,7 C 6,9 km/h (2 Bft)
03.04.2016 16:00 23,5 C 27,4 C 30 % 1011,8 hPa 0,0 mm 4,2 km/h (1 Bft) NW 315 5 min 4,9 C 4,2 km/h (1 Bft)
03.04.2016 16:05 23,5 C 27,9 C 28 % 1011,8 hPa 0,0 mm 4,8 km/h (1 Bft) W-SW 247 5 min 3,9 C 6,9 km/h (2 Bft)
03.04.2016 16:10 23,3 C 27,7 C 28 % 1011,7 hPa 0,0 mm 4,8 km/h (1 Bft) O-SO 112 5 min 3,8 C 5,7 km/h (1 Bft)
03.04.2016 16:15 23,2 C 27,1 C 27 % 1011,7 hPa 0,0 mm 6,3 km/h (2 Bft) NO 45 5 min 3,2 C 9,2 km/h (2 Bft)
03.04.2016 16:20 23,1 C 27,0 C 28 % 1011,7 hPa 0,0 mm 6,6 km/h (2 Bft) SW 225 5 min 3,6 C 15,5 km/h (3 Bft)
03.04.2016 16:25 22,9 C 26,7 C 28 % 1011,7 hPa 0,0 mm 4,5 km/h (1 Bft) W-NW 292 5 min 3,4 C 9,2 km/h (2 Bft)
03.04.2016 16:30 23,0 C 26,9 C 29 % 1011,5 hPa 0,0 mm 4,2 km/h (1 Bft) O-NO 67 5 min 4,0 C 4,2 km/h (1 Bft)
03.04.2016 16:35 23,0 C 27,0 C 30 % 1011,5 hPa 0,0 mm 4,8 km/h (1 Bft) O 90 5 min 4,5 C 6,0 km/h (2 Bft)
03.04.2016 16:40 22,9 C 27,0 C 29 % 1011,5 hPa 0,0 mm 5,7 km/h (1 Bft) NO 45 5 min 3,9 C 0,0 km/h (0 Bft)
03.04.2016 16:45 22,8 C 27,1 C 29 % 1011,5 hPa 0,0 mm 4,2 km/h (1 Bft) NW 315 5 min 3,8 C 3,9 km/h (1 Bft)
03.04.2016 16:50 22,7 C 26,6 C 29 % 1011,3 hPa 0,0 mm 2,7 km/h (1 Bft) NO 45 5 min 3,7 C 3,0 km/h (1 Bft)
03.04.2016 16:55 22,7 C 26,0 C 30 % 1011,3 hPa 0,0 mm 2,1 km/h (1 Bft) S-SO 157 5 min 4,2 C 0,0 km/h (0 Bft)
03.04.2016 17:00 22,7 C 25,9 C 30 % 1011,3 hPa 0,0 mm 2,1 km/h (1 Bft) NO 45 5 min 4,2 C 0,0 km/h (0 Bft)
03.04.2016 17:05 22,7 C 25,9 C 31 % 1011,3 hPa 0,0 mm 2,7 km/h (1 Bft) NO 45 5 min 4,7 C 18,5 km/h (3 Bft)
03.04.2016 17:10 22,5 C 25,5 C 30 % 1011,2 hPa 0,0 mm 5,4 km/h (1 Bft) SO 135 5 min 4,1 C 8,6 km/h (2 Bft)
03.04.2016 17:15 22,6 C 25,3 C 30 % 1011,2 hPa 0,0 mm 7,5 km/h (2 Bft) N-NO 22 5 min 4,1 C 7,7 km/h (2 Bft)
03.04.2016 17:20 22,5 C 25,1 C 30 % 1011,2 hPa 0,0 mm 7,5 km/h (2 Bft) O-SO 112 5 min 4,1 C 8,9 km/h (2 Bft)
03.04.2016 17:25 22,1 C 24,3 C 30 % 1011,2 hPa 0,0 mm 9,5 km/h (2 Bft) NO 45 5 min 3,7 C 15,5 km/h (3 Bft)
03.04.2016 17:30 21,8 C 23,7 C 30 % 1011,1 hPa 0,0 mm 9,5 km/h (2 Bft) O-NO 67 0 min 3,5 C 8,9 km/h (2 Bft)
03.04.2016 17:35 21,6 C 23,3 C 31 % 1011,1 hPa 0,0 mm 8,0 km/h (2 Bft) O-NO 67 0 min 3,7 C 0,0 km/h (0 Bft)
03.04.2016 17:40 21,6 C 23,9 C 32 % 1011,1 hPa 0,0 mm 5,1 km/h (1 Bft) O 90 0 min 4,2 C 5,1 km/h (1 Bft)
03.04.2016 17:45 21,7 C 24,6 C 32 % 1011,1 hPa 0,0 mm 3,6 km/h (1 Bft) N-NW 337 5 min 4,3 C 0,0 km/h (0 Bft)
03.04.2016 17:50 21,6 C 24,3 C 32 % 1010,9 hPa 0,0 mm 5,7 km/h (1 Bft) N-NO 22 5 min 4,2 C 9,8 km/h (2 Bft)
03.04.2016 17:55 21,7 C 23,7 C 33 % 1010,9 hPa 0,0 mm 4,8 km/h (1 Bft) O-NO 67 0 min 4,7 C 6,0 km/h (2 Bft)
03.04.2016 18:00 21,7 C 23,8 C 33 % 1010,9 hPa 0,0 mm 4,5 km/h (1 Bft) SO 135 0 min 4,7 C 0,0 km/h (0 Bft)
03.04.2016 18:05 21,9 C 24,0 C 33 % 1010,9 hPa 0,0 mm 3,3 km/h (1 Bft) O-NO 67 0 min 4,9 C 7,5 km/h (2 Bft)
03.04.2016 18:10 21,6 C 24,0 C 33 % 1010,8 hPa 0,0 mm 1,5 km/h (1 Bft) NW 315 5 min 4,6 C 0,0 km/h (0 Bft)
03.04.2016 18:15 21,4 C 23,6 C 32 % 1010,8 hPa 0,0 mm 1,8 km/h (1 Bft) W-SW 247 5 min 4,0 C 5,4 km/h (1 Bft)
03.04.2016 18:18 21,4 C 23,6 C 32 % 1010,8 hPa 0,0 mm 1,8 km/h (1 Bft) W-SW 247 3 min 4,0 C 5,4 km/h (1 Bft)
03.04.2016 18:20 21,2 C 23,4 C 32 % 1010,8 hPa 0,0 mm 1,2 km/h (1 Bft) O-NO 67 2 min 3,8 C 0,0 km/h (0 Bft)
03.04.2016 18:25 20,9 C 23,1 C 33 % 1010,8 hPa 0,0 mm 1,2 km/h (1 Bft) S 180 5 min 4,0 C 3,6 km/h (1 Bft)
03.04.2016 18:30 20,8 C 22,9 C 32 % 1010,8 hPa 0,0 mm 3,6 km/h (1 Bft) S 180 0 min 3,5 C 10,7 km/h (2 Bft)
03.04.2016 18:35 20,6 C 22,1 C 31 % 1010,8 hPa 0,0 mm 7,5 km/h (2 Bft) SW 225 0 min 2,9 C 10,1 km/h (2 Bft)
03.04.2016 18:40 20,1 C 21,5 C 32 % 1010,8 hPa 0,0 mm 7,7 km/h (2 Bft) S-SW 202 0 min 2,9 C 7,2 km/h (2 Bft)
03.04.2016 18:45 19,6 C 20,7 C 32 % 1010,8 hPa 0,0 mm 5,7 km/h (1 Bft) SW 225 0 min 2,5 C 6,3 km/h (2 Bft)
03.04.2016 18:50 19,2 C 20,2 C 32 % 1010,6 hPa 0,0 mm 4,8 km/h (1 Bft) W-SW 247 0 min 2,1 C 4,5 km/h (1 Bft)
03.04.2016 18:55 18,8 C 19,5 C 32 % 1010,6 hPa 0,0 mm 5,7 km/h (1 Bft) S 180 0 min 1,8 C 4,8 km/h (1 Bft)
03.04.2016 19:00 18,5 C 19,1 C 33 % 1010,6 hPa 0,0 mm 4,8 km/h (1 Bft) W-SW 247 0 min 1,9 C 6,9 km/h (2 Bft)
03.04.2016 19:05 17,8 C 18,5 C 34 % 1010,6 hPa 0,0 mm 4,5 km/h (1 Bft) S-SO 157 0 min 1,7 C 3,3 km/h (1 Bft)
03.04.2016 19:10 17,8 C 18,1 C 34 % 1010,8 hPa 0,0 mm 5,1 km/h (1 Bft) S-SW 202 0 min 1,7 C 7,7 km/h (2 Bft)
03.04.2016 19:15 17,6 C 17,9 C 35 % 1010,8 hPa 0,0 mm 6,0 km/h (2 Bft) S 180 0 min 2,0 C 3,3 km/h (1 Bft)
03.04.2016 19:20 17,5 C 17,8 C 35 % 1010,8 hPa 0,0 mm 8,3 km/h (2 Bft) SW 225 0 min 1,9 C 10,4 km/h (2 Bft)
03.04.2016 19:25 16,9 C 17,6 C 36 % 1010,8 hPa 0,0 mm 6,3 km/h (2 Bft) S 180 0 min 1,7 C 0,0 km/h (0 Bft)
03.04.2016 19:30 16,8 C 17,3 C 36 % 1010,9 hPa 0,0 mm 5,7 km/h (1 Bft) SW 225 0 min 1,7 C 10,1 km/h (2 Bft)
03.04.2016 19:35 16,9 C 17,2 C 37 % 1010,9 hPa 0,0 mm 6,0 km/h (2 Bft) S-SO 157 0 min 2,1 C 8,0 km/h (2 Bft)
03.04.2016 19:40 16,9 C 17,0 C 38 % 1010,9 hPa 0,0 mm 6,0 km/h (2 Bft) S 180 0 min 2,5 C 9,2 km/h (2 Bft)
03.04.2016 19:45 16,7 C 16,9 C 39 % 1010,9 hPa 0,0 mm 4,5 km/h (1 Bft) S 180 0 min 2,7 C 5,7 km/h (1 Bft)
03.04.2016 19:50 16,7 C 16,8 C 39 % 1010,8 hPa 0,0 mm 5,1 km/h (1 Bft) S 180 0 min 2,7 C 8,0 km/h (2 Bft)
03.04.2016 19:55 16,7 C 16,7 C 40 % 1010,8 hPa 0,0 mm 5,4 km/h (1 Bft) SW 225 0 min 3,0 C 8,9 km/h (2 Bft)
03.04.2016 20:00 16,8 C 16,8 C 41 % 1010,8 hPa 0,0 mm 6,6 km/h (2 Bft) O-NO 67 0 min 3,5 C 11,0 km/h (2 Bft)
03.04.2016 20:05 16,7 C 16,7 C 43 % 1010,8 hPa 0,0 mm 8,0 km/h (2 Bft) S 180 0 min 4,1 C 3,6 km/h (1 Bft)
03.04.2016 20:10 16,6 C 16,6 C 45 % 1010,9 hPa 0,0 mm 7,7 km/h (2 Bft) S 180 0 min 4,6 C 11,0 km/h (2 Bft)
03.04.2016 20:15 16,2 C 16,3 C 46 % 1010,9 hPa 0,0 mm 5,4 km/h (1 Bft) SO 135 0 min 4,6 C 0,0 km/h (0 Bft)
03.04.2016 20:20 15,8 C 15,9 C 47 % 1010,9 hPa 0,0 mm 3,0 km/h (1 Bft) O-SO 112 0 min 4,5 C 0,0 km/h (0 Bft)
03.04.2016 20:25 15,2 C 15,4 C 48 % 1010,9 hPa 0,0 mm 0,0 km/h (0 Bft) O-NO 67 0 min 4,3 C 0,0 km/h (0 Bft)
03.04.2016 20:30 15,6 C 15,4 C 49 % 1011,1 hPa 0,0 mm 1,5 km/h (1 Bft) S-SO 157 0 min 4,9 C 4,5 km/h (1 Bft)
03.04.2016 20:35 15,6 C 15,5 C 49 % 1011,1 hPa 0,0 mm 3,9 km/h (1 Bft) SO 135 0 min 4,9 C 4,2 km/h (1 Bft)
03.04.2016 20:40 15,5 C 15,4 C 49 % 1011,1 hPa 0,0 mm 3,3 km/h (1 Bft) S 180 0 min 4,8 C 0,0 km/h (0 Bft)
03.04.2016 20:45 15,4 C 15,3 C 51 % 1011,1 hPa 0,0 mm 2,7 km/h (1 Bft) SO 135 0 min 5,3 C 0,0 km/h (0 Bft)
03.04.2016 20:50 15,4 C 15,3 C 52 % 1011,2 hPa 0,0 mm 2,4 km/h (1 Bft) SO 135 0 min 5,6 C 4,2 km/h (1 Bft)
03.04.2016 20:55 15,1 C 15,0 C 52 % 1011,2 hPa 0,0 mm 1,5 km/h (1 Bft) S-SO 157 0 min 5,3 C 3,0 km/h (1 Bft)
03.04.2016 21:00 14,9 C 14,8 C 53 % 1011,2 hPa 0,0 mm 2,1 km/h (1 Bft) S-SO 157 0 min 5,4 C 4,5 km/h (1 Bft)
03.04.2016 21:05 14,3 C 14,5 C 53 % 1011,2 hPa 0,0 mm 2,1 km/h (1 Bft) N-NW 337 0 min 4,9 C 0,0 km/h (0 Bft)
03.04.2016 21:10 14,0 C 14,1 C 54 % 1011,2 hPa 0,0 mm 1,5 km/h (1 Bft) SO 135 0 min 4,8 C 3,9 km/h (1 Bft)
03.04.2016 21:15 14,1 C 14,2 C 53 % 1011,2 hPa 0,0 mm 3,0 km/h (1 Bft) S-SO 157 0 min 4,7 C 5,4 km/h (1 Bft)
03.04.2016 21:18 13,4 C 13,9 C 53 % 1011,2 hPa 0,0 mm 3,3 km/h (1 Bft) SO 135 0 min 4,0 C 3,3 km/h (1 Bft)
03.04.2016 21:19 13,4 C 13,9 C 53 % 1011,2 hPa 0,0 mm 3,3 km/h (1 Bft) SO 135 0 min 4,0 C 3,3 km/h (1 Bft)
03.04.2016 21:20 13,4 C 13,9 C 53 % 1011,2 hPa 0,0 mm 3,3 km/h (1 Bft) SO 135 0 min 4,0 C 3,3 km/h (1 Bft)
03.04.2016 21:25 13,5 C 13,7 C 54 % 1011,2 hPa 0,0 mm 1,2 km/h (1 Bft) S 180 0 min 4,4 C 4,8 km/h (1 Bft)
03.04.2016 21:30 13,3 C 13,5 C 54 % 1011,2 hPa 0,0 mm 2,1 km/h (1 Bft) O-SO 112 0 min 4,2 C 0,0 km/h (0 Bft)
03.04.2016 21:35 12,7 C 12,7 C 55 % 1011,2 hPa 0,0 mm 1,8 km/h (1 Bft) S 180 0 min 3,9 C 3,9 km/h (1 Bft)
03.04.2016 21:40 12,8 C 13,1 C 55 % 1011,2 hPa 0,0 mm 1,5 km/h (1 Bft) SO 135 0 min 4,0 C 4,8 km/h (1 Bft)
03.04.2016 21:45 13,3 C 13,5 C 52 % 1011,2 hPa 0,0 mm 2,4 km/h (1 Bft) SO 135 0 min 3,7 C 0,0 km/h (0 Bft)
03.04.2016 21:50 13,4 C 13,3 C 51 % 1011,0 hPa 0,0 mm 1,2 km/h (1 Bft) O-NO 67 0 min 3,5 C 0,0 km/h (0 Bft)
03.04.2016 21:55 13,1 C 13,2 C 51 % 1011,0 hPa 0,0 mm 0,0 km/h (0 Bft) SO 135 0 min 3,2 C 0,0 km/h (0 Bft)
03.04.2016 22:00 13,2 C 13,1 C 50 % 1011,0 hPa 0,0 mm 0,0 km/h (0 Bft) SO 135 0 min 3,0 C 0,0 km/h (0 Bft)
03.04.2016 22:05 13,8 C 13,5 C 50 % 1011,0 hPa 0,0 mm 1,8 km/h (1 Bft) SO 135 0 min 3,6 C 0,0 km/h (0 Bft)
03.04.2016 22:10 13,5 C 13,4 C 50 % 1011,0 hPa 0,0 mm 1,8 km/h (1 Bft) O 90 0 min 3,3 C 0,0 km/h (0 Bft)
03.04.2016 22:15 13,4 C 13,3 C 49 % 1011,0 hPa 0,0 mm 0,0 km/h (0 Bft) O-NO 67 0 min 2,9 C 0,0 km/h (0 Bft)
03.04.2016 22:20 13,7 C 13,5 C 49 % 1011,0 hPa 0,0 mm 0,0 km/h (0 Bft) N-NO 22 0 min 3,2 C 0,0 km/h (0 Bft)
03.04.2016 22:25 13,8 C 13,6 C 48 % 1011,0 hPa 0,0 mm 0,0 km/h (0 Bft) O-SO 112 0 min 3,0 C 0,0 km/h (0 Bft)
03.04.2016 22:30 13,8 C 13,6 C 48 % 1011,0 hPa 0,0 mm 0,0 km/h (0 Bft) O-SO 112 0 min 3,0 C 0,0 km/h (0 Bft)
03.04.2016 22:35 13,8 C 13,6 C 48 % 1011,0 hPa 0,0 mm 0,0 km/h (0 Bft) O-SO 112 0 min 3,0 C 0,0 km/h (0 Bft)
03.04.2016 22:40 13,7 C 13,5 C 48 % 1011,0 hPa 0,0 mm 0,0 km/h (0 Bft) O-SO 112 0 min 2,9 C 0,0 km/h (0 Bft)
03.04.2016 22:45 13,3 C 13,3 C 48 % 1011,0 hPa 0,0 mm 0,0 km/h (0 Bft) O-SO 112 0 min 2,5 C 0,0 km/h (0 Bft)
03.04.2016 22:50 13,9 C 13,7 C 48 % 1011,1 hPa 0,0 mm 0,0 km/h (0 Bft) O-SO 112 0 min 3,1 C 0,0 km/h (0 Bft)
03.04.2016 22:55 13,6 C 13,5 C 48 % 1011,1 hPa 0,0 mm 0,0 km/h (0 Bft) O-SO 112 0 min 2,8 C 0,0 km/h (0 Bft)
03.04.2016 23:00 13,4 C 13,4 C 48 % 1011,1 hPa 0,0 mm 0,0 km/h (0 Bft) O-SO 112 0 min 2,6 C 0,0 km/h (0 Bft)
03.04.2016 23:05 13,6 C 13,6 C 47 % 1011,1 hPa 0,0 mm 0,0 km/h (0 Bft) O-SO 112 0 min 2,5 C 0,0 km/h (0 Bft)
03.04.2016 23:10 13,8 C 13,8 C 47 % 1010,8 hPa 0,0 mm 0,0 km/h (0 Bft) O-SO 112 0 min 2,7 C 0,0 km/h (0 Bft)
03.04.2016 23:15 13,6 C 13,7 C 46 % 1010,8 hPa 0,0 mm 0,0 km/h (0 Bft) O-SO 112 0 min 2,2 C 0,0 km/h (0 Bft)
03.04.2016 23:20 13,7 C 13,7 C 46 % 1010,8 hPa 0,0 mm 0,0 km/h (0 Bft) O-SO 112 0 min 2,3 C 0,0 km/h (0 Bft)
03.04.2016 23:25 13,4 C 13,8 C 46 % 1010,8 hPa 0,0 mm 0,0 km/h (0 Bft) O-SO 112 0 min 2,0 C 0,0 km/h (0 Bft)
03.04.2016 23:30 13,6 C 13,7 C 46 % 1010,8 hPa 0,0 mm 0,0 km/h (0 Bft) N-NO 22 0 min 2,2 C 0,0 km/h (0 Bft)
03.04.2016 23:35 13,9 C 13,9 C 46 % 1010,8 hPa 0,0 mm 0,0 km/h (0 Bft) N-NO 22 0 min 2,5 C 0,0 km/h (0 Bft)
03.04.2016 23:40 14,0 C 13,9 C 46 % 1010,8 hPa 0,0 mm 0,3 km/h (0 Bft) O-SO 112 0 min 2,6 C 0,0 km/h (0 Bft)
03.04.2016 23:45 13,6 C 13,8 C 46 % 1010,8 hPa 0,0 mm 0,3 km/h (0 Bft) NW 315 0 min 2,2 C 0,0 km/h (0 Bft)
03.04.2016 23:50 13,8 C 13,8 C 45 % 1010,6 hPa 0,0 mm 0,0 km/h (0 Bft) SO 135 0 min 2,1 C 0,0 km/h (0 Bft)
03.04.2016 23:55 13,9 C 13,9 C 46 % 1010,6 hPa 0,0 mm 0,0 km/h (0 Bft) O 90 0 min 2,5 C 3,6 km/h (1 Bft)
_ Min-Zeit 01:35 00:14 15:25 23:55 - 23:55 - - - 06:40 23:50
Minimum _ 8,0 C 7,9 C 25 % 1010,6 hPa - 0,0 km/h (0 Bft) - - - 0,6 C 0,0 km/h (0 Bft)
_ Max-Zeit 16:05 16:05 00:14 10:25 23:55 14:30 - - 18:25 09:25 14:45
Maximum _ 23,5 C 27,9 C 80 % 1014,3 hPa 0,0 mm 13,1 km/h
N-NO (3 Bft)
- - 5 min 6,4 C 28,6 km/h
S-SO (4 Bft)
Durchschnitt _ 15,7 C 17,2 C 46 % 1012,7 hPa #0,0 mm 2,5 km/h (1 Bft) O-NO - #6:55 h 3,6 C 3,3 km/h (1 Bft)